sat.trackr.live / text

‹ back to catalog

STARLINK-11168 [DTC]

NORAD 60183 · 2024-124A

PAYLOAD ACTIVE UNKNOWN

§ Identity

Operator
Country
US
Launch date
2024-07-03
Launch site
AFETR
Launch vehicle
Mass (kg)
RCS (m²)

Purposes: comms

External: N2YO · Heavens-Above · Gunter

§ Orbital elements

Epoch: 2026-09-21T08:03:26.143200Z

Period
91.74 min
Inclination
53.1581°
Eccentricity
0.0001080
Mean motion
15.69680790 rev/d
Perigee alt
359.1 km
Apogee alt
360.5 km
Semi-major
6,737.9 km
B*
-2.4062e-5
RAAN
276.7095°
Arg perigee
69.8904°
Mean anomaly
290.2230°
Rev number
12,845

§ Raw data

STARLINK-11168 [DTC]1 60183U 24124A   26264.33571925 -.00003499  00000+0 -24062-4 0  99902 60183  53.1581 276.7095 0001080  69.8904 290.2230 15.69680790128453

JSON: /api/v1/satellites/60183 · /tle

For live sub-satellite position, see the globe view (requires WebGL).

§ Visibility from observer

Set your observer location to see the next 7 days of passes ≥ 10°. The values pass through the URL so the page stays shareable.

No JS? Fill the form by hand. The geolocation button needs JavaScript.